Regional Weather Roundup
Issued by NWS

Home | Current Version | Previous Version | Graphics & Text | Print | Product List | Glossary On
Versions: 1 2 3 4 5 6 7 8 9 10 11 12 13 14 15 16 17 18 19 20 21 22 23 24 25 26 27 28 29 30 31 32 33 34 35 36 37 38 39 40 41 42 43 44 45 46 47 48 49 50
000
ASUS45 KCYS 251810
RWRWY

WYOMING REGIONAL WEATHER ROUNDUP
NATIONAL WEATHER SERVICE CHEYENNE WY
1100 AM MST THU DEC 25 2014

NOTE:  "FAIR" INDICATES FEW OR NO CLOUDS BELOW 12,000 FEET
WITH NO SIGNIFICANT WEATHER AND/OR OBSTRUCTIONS TO VISIBILITY.

WYZ001-251900-
YELLOWSTONE NATIONAL PARK

CITY           SKY/WX    TMP DP  RH WIND       PRES   REMARKS
LK YELLOWSTONE   N/A     15  10  80 NE6       29.64R WCI   6
6HR MIN TEMP:  15; 6HR MAX TEMP:  20; 6HR PCP:  0.03;

W YELLOWSTONE  NOT AVBL

$$
WYZ002>013-054>058-071-098>099-251900-
NORTHERN WYOMING

CITY           SKY/WX    TMP DP  RH WIND       PRES   REMARKS
JACKSON        SNOW      23  21  93 N26G33    29.52R VSB 1/2 WCI   6
CODY           CLOUDY    21  21 100 N17G25    29.75R WCI   7
GREYBULL       CLOUDY    29  19  66 NW22      29.69R WCI  15
6HR MIN TEMP:  29; 6HR MAX TEMP:  32; 6HR PCP: TRACE;

WORLAND        SNOW      26  23  88 N15       29.69R VSB 1/4 WCI  14
6HR MIN TEMP:  26; 6HR MAX TEMP:  28; 6HR PCP:  0.15;

SHERIDAN       LGT SNOW  26  22  84 NW7       29.81R VSB 3/4 WCI  18
6HR MIN TEMP:  26; 6HR MAX TEMP:  29; 6HR PCP:  0.16;

BUFFALO        LGT SNOW  24  22  91 N18G24    29.75R VSB 3/4 WCI  10
6HR MIN TEMP:  24; 6HR MAX TEMP:  26; 6HR PCP:  0.03;

GILLETTE       LGT SNOW  24  22  91 N17       29.74R VSB 3/4 WCI  11
6HR MIN TEMP:  24; 6HR MAX TEMP:  27; 6HR PCP:  0.09;

HULETT           N/A    N/A N/A N/A MISG        N/A
NEWCASTLE      FLURRIES  32  21  64 N5        29.66R WCI  27

$$
WYZ014>020-022>026-101>103-251900-
CENTRAL WYOMING

CITY           SKY/WX    TMP DP  RH WIND       PRES   REMARKS
BIG PINEY      HVY SNOW  24  21  88 SE16      29.49R VSB 1/4 WCI  11
6HR MIN TEMP:  23; 6HR MAX TEMP:  26; 6HR PCP: TRACE;

PINEDALE       LGT SNOW  27  18  69 E8        29.49R WCI  18
DUBOIS         NOT AVBL
LANDER         SNOW      24  21  88 NE9       29.65R VSB 1/4 WCI  14
6HR MIN TEMP:  24; 6HR MAX TEMP:  27; 6HR PCP:  0.29;

RIVERTON       LGT SNOW  24  19  81 N22       29.64R WCI   9
6HR MIN TEMP:  23; 6HR MAX TEMP:  28; 6HR PCP:  0.14;

CASPER         LGT SNOW  24  20  84 N18G24    29.64R FOG     WCI  10
6HR MIN TEMP:  24; 6HR MAX TEMP:  29; 6HR PCP:  0.09;

DOUGLAS        LGT SNOW  29  26  89 N7        29.62R FOG     WCI  22
6HR MIN TEMP:  28; 6HR MAX TEMP:  32; 6HR PCP: TRACE;


$$
WYZ021-027>030-104>119-251900-
SOUTHERN WYOMING

CITY           SKY/WX    TMP DP  RH WIND       PRES   REMARKS
EVANSTON       LGT SNOW  21  18  88 SW16      29.53R FOG     WCI   7
6HR MIN TEMP:  20; 6HR MAX TEMP:  27; 6HR PCP: TRACE;

FORT BRIDGER   LGT SNOW  24  20  83 W20G31    29.54R WCI   9
ROCK SPRINGS   SNOW      22  19  89 NE9       29.53R VSB 1/4 WCI  12
6HR MIN TEMP:  22; 6HR MAX TEMP:  27; 6HR PCP:  0.07;

DIXON          FLURRIES  31  27  83 W6        29.51S WCI  26
RAWLINS        HVY SNOW  22  19  89 N16G28    29.52R VSB 1/4 WCI   8
6HR MIN TEMP:  22; 6HR MAX TEMP:  29; 6HR PCP:  0.08;

SARATOGA       MOCLDY    32  25  74 NW3       29.49S
LARAMIE        CLOUDY    29  25  85 E7        29.48S WCI  22
6HR MIN TEMP:  27; 6HR MAX TEMP:  33; 6HR PCP:  0.04;

CHEYENNE       SNOW      30  28  92 NE10      29.51S VSB 1/2 WCI  21
6HR MIN TEMP:  26; 6HR MAX TEMP:  33; 6HR PCP:  0.05;

TORRINGTON     LGT SNOW  30  26  85 NE16      29.57F FOG     WCI  19
6HR MIN TEMP:  29; 6HR MAX TEMP:  39; 6HR PCP: TRACE;

PINE BLUFFS    MIX PCPN  30  28  93 NE13      29.53F WCI  20

$$



USA.gov is the U.S. government's official web portal to all federal, state and local government web resources and services.